Lexington Weather

Lexington, Massachusetts, USA

46°F
10/22/2019 1:58am 
  • Lexington Conditions: Partly cloudy
  • Temperature: 46.0°F / 7.8°CWarmer 0.5°F than last hour.
  • Dew Point: 44.4°FIncreased 1.4°Fsince last hour.
  • Relative Humidity: 94%Increased 3.0% since last hour.
  • Wind: Calm, 10-min avg: Calm, gust: None
  • Barometer: 30.12 in Steady
  • Visibility: 9 miles
  • Rain Today: 0.00 in
  •   

Regional Weather Roundup
for Boston, MA

        
000
ASUS41 KBOX 210910
RWRBOX

REGIONAL WEATHER ROUNDUP
NATIONAL WEATHER SERVICE BOSTON/NORTON MA
500 AM EDT MON OCT 21 2019

NOTE:  "FAIR" INDICATES FEW OR NO CLOUDS BELOW 12,000 FEET WITH NO 
SIGNIFICANT WEATHER AND/OR OBSTRUCTIONS TO VISIBILITY.

MAZALL-211000-
EASTERN MASSACHUSETTS
  
CITY           SKY/WX    TMP DP  RH WIND       PRES   REMARKS
BOSTON         CLOUDY    55  48  77 N8        30.05R                  
BEVERLY        CLOUDY    52  48  86 N8        30.04S                  
LAWRENCE       CLOUDY    50  47  89 N8        30.07S                  
BEDFORD        CLOUDY    53  47  79 N5        30.04S                  
BLUE HILL      NOT AVBL                                               
NORWOOD        CLOUDY    54  48  80 N5        30.03F                  
MARSHFIELD     CLOUDY    57  55  94 NE8G15    30.02R                  
PLYMOUTH       CLOUDY    54  53  97 NE8       30.01S                  
TAUNTON        MOCLDY    53  49  86 VRB3      30.00F                  
NEW BEDFORD    CLOUDY    54  51  90 N6        30.00R                  
$$

MAZALL-211000-
CAPE COD AND THE ISLANDS
  
CITY           SKY/WX    TMP DP  RH WIND       PRES   REMARKS
FALMOUTH       PTCLDY    52  52 100 NE7       29.98S                  
HYANNIS        LGT RAIN  55  52  89 E6        30.00R                  
CHATHAM        NOT AVBL                                               
PROVINCETOWN   CLOUDY    55  53  93 E9          N/A                   
NANTUCKET      LGT RAIN  53  51  93 E15       29.94F                  
MARTHAS VNYRD  LGT RAIN  53  51  93 NE13      29.98R                  
$$
 
MAZALL-211000-
CENTRAL AND WESTERN MASSACHUSETTS
  
CITY           SKY/WX    TMP DP  RH WIND       PRES   REMARKS
WORCESTER      CLOUDY    47  46  97 N9        30.04R                  
FITCHBURG      FAIR      47  45  93 W3        30.06F                  
ORANGE         FAIR      44  42  93 CALM      30.08R FOG              
SPRINGFIELD    FAIR      44  43  98 N3        30.03S                  
WESTFIELD      FAIR      44  42  93 N6        30.04S                  
NORTH ADAMS    FOG       41  39  93 S3        30.08R VSB 1/4          
PITTSFIELD     FOG       39  38  96 CALM      30.04S VSB 1/2          
$$
 
RIZALL-211000-
RHODE ISLAND
  
CITY           SKY/WX    TMP DP  RH WIND       PRES   REMARKS
PROVIDENCE     CLOUDY    53  49  86 N9        30.02R                  
NEWPORT        CLOUDY    54  50  86 N9        29.99R                  
BLOCK ISLAND   CLOUDY    54  53  97 NE16G25   29.96S                  
SMITHFIELD     CLOUDY   N/A N/A N/A NE7       30.02R                  
WESTERLY       CLOUDY    55  52  89 N7        30.00R                  
$$
 
CTZALL-211000-
CONNECTICUT
  
CITY           SKY/WX    TMP DP  RH WIND       PRES   REMARKS
BRADLEY INTL   FAIR      48  45  89 N7        30.03R                  
HARTFORD       FAIR      49  46  90 N7        30.03R                  
BRIDGEPORT     MOCLDY    53  47  79 N14       29.99S                  
DANBURY        FAIR      44  43  96 CALM      30.03R                  
GROTON         CLOUDY    51  49  92 N9        29.98F                  
NEW HAVEN      FAIR      53  48  83 N14       30.00R                  
CHESTER        CLOUDY    50  48  93 N6G14     30.00R                  
MERIDEN        FAIR      48  45  89 N6        30.02R                  
WILLIMANTIC    CLOUDY    49  48  97 N6        30.03R                  
OXFORD         FAIR      47  44  90 N10       30.02R                  
$$

MEZ002-015-021-024-NHZ003-005-008-011-012-014-VTZ005-008-211000-
NORTHERN NEW ENGLAND
  
CITY           SKY/WX    TMP DP  RH WIND       PRES   REMARKS
PORTLAND ME    MOCLDY    49  46  90 CALM      30.08R                  
BANGOR ME      CLOUDY    46  44  93 CALM      30.09F                  
CONCORD NH     FOG       46  45  96 NW6       30.09R VSB 1/4          
MANCHESTER NH  MOCLDY    50  47  89 N5        30.06R                  
NASHUA NH      CLOUDY    49  49 100 NW3       30.07S                  
PORTSMOUTH NH  CLOUDY    50  47  90 N5        30.06R                  
JAFFREY NH     FOG       45  43  93 VRB3      30.07R VSB 1/2          
KEENE NH       FOG       42  42 100 N5        30.09R VSB 1/4          
BURLINGTON VT  FAIR      39  36  89 CALM      30.09R                  
MT. WASHINGTON PTCLDY    37  28  70 W12         N/A  WCI  30          
$$

NYZ052-076-211000-
EASTERN NEW YORK
  
CITY           SKY/WX    TMP DP  RH WIND       PRES   REMARKS
ALBANY         FOG       46  44  93 CALM      30.09R VSB 1/4          
NEW YORK CITY  FAIR      52  47  83 N10       29.99R                  
$$
 
ANZALL-211000-
MARINE OBSERVATIONS
  
STATION/POSITION TIME  TEMP    WIND        PRES    VSBY  WAVE
                       AIR SEA DIR/SP/G                  HT/PER
                 (UTC) (F)     (DEG/KT/KT) (MB)    (MI)  (FT/S)
BOSTON BUOY      0850   56 57   50/ 10/ 16 1016.1R         1/ 9
BUZZARDS BAY     0800   55      40/ 19/ 21 1015.0F
NANTUCKET SOUND  0840      57                N/A           2/ 3
MASS BAY-STELLWA 0804   56 56   50/  8/ 10 1016.7R  1 7/8  1/ 3
ISLE OF SHOALS   0800   54      20/  3/  3 1017.4S
S OF BLOCK IS    0830      60                N/A           4/ 5
$$

......................KEY.........................
  SKY/WX - SKY CONDITION/PRESENT WEATHER
  TMP    - TEMPERATURE IN FAHRENHEIT
  DWPT   - DEWPOINT IN FAHRENHEIT
  RH     - RELATIVE HUMIDITY IN PERCENT
  WIND   - DIRECTION AND SPEED IN MPH
  PRES   - MEAN SEA LEVEL PRESSURE IN INCHES OF HG
  WCI    - WIND CHILL INDEX
  VSB    - VISIBILITY IN MILES
  HX     - HEAT INDEX
  TC     - TEMPERATURE IN CELSIUS
  VRB    - VARIABLE WIND DIRECTION
  N/A    - NOT AVAILABLE
  
      

Other recent Regional Weather Roundups

Tue Oct 22, 1:10am

Tue Oct 22, 1:00am

Tue Oct 22, 12:10am

Tue Oct 22, 12:00am

Mon Oct 21, 11:10pm

Mon Oct 21, 11:00pm

Mon Oct 21, 10:10pm

Mon Oct 21, 10:01pm

Mon Oct 21, 9:10pm

Mon Oct 21, 9:00pm

Mon Oct 21, 8:10pm

Mon Oct 21, 8:00pm

Mon Oct 21, 7:10pm

Mon Oct 21, 7:01pm

Mon Oct 21, 6:10pm

Mon Oct 21, 6:01pm

Mon Oct 21, 5:10pm

Mon Oct 21, 5:01pm

Mon Oct 21, 4:10pm

Mon Oct 21, 4:00pm

Mon Oct 21, 3:10pm

Mon Oct 21, 3:01pm

Mon Oct 21, 2:10pm

Mon Oct 21, 2:00pm

Mon Oct 21, 1:10pm

Mon Oct 21, 1:01pm

Mon Oct 21, 12:10pm

Mon Oct 21, 12:00pm

Mon Oct 21, 11:10am

Mon Oct 21, 11:00am

Mon Oct 21, 10:10am

Mon Oct 21, 10:00am

Mon Oct 21, 9:10am

Mon Oct 21, 9:00am

Mon Oct 21, 7:10am

Mon Oct 21, 7:00am

Mon Oct 21, 6:10am

Mon Oct 21, 6:00am

Mon Oct 21, 5:00am

Mon Oct 21, 4:10am

Mon Oct 21, 4:00am

Mon Oct 21, 3:10am

Mon Oct 21, 3:00am

Mon Oct 21, 2:10am

Mon Oct 21, 2:01am

Mon Oct 21, 1:10am

Mon Oct 21, 1:00am

Mon Oct 21, 12:10am

Mon Oct 21, 12:00am

Sun Oct 20, 11:10pm

Sun Oct 20, 11:00pm

Sun Oct 20, 10:10pm

Sun Oct 20, 10:00pm

Sun Oct 20, 9:10pm

Sun Oct 20, 9:01pm

Sun Oct 20, 8:10pm

Sun Oct 20, 8:00pm

Sun Oct 20, 7:10pm

Sun Oct 20, 7:01pm

Sun Oct 20, 6:10pm

Sun Oct 20, 6:00pm

Sun Oct 20, 5:10pm

Sun Oct 20, 5:00pm

Sun Oct 20, 4:10pm

Sun Oct 20, 4:00pm

Sun Oct 20, 3:10pm

Sun Oct 20, 3:00pm

Sun Oct 20, 2:10pm

Sun Oct 20, 2:01pm

Sun Oct 20, 1:10pm

Sun Oct 20, 1:01pm

Sun Oct 20, 12:10pm

Sun Oct 20, 12:00pm

Sun Oct 20, 11:10am

Sun Oct 20, 11:00am

Sun Oct 20, 10:10am

Sun Oct 20, 10:00am

Sun Oct 20, 9:10am

Sun Oct 20, 9:00am

Sun Oct 20, 8:10am

Sun Oct 20, 8:00am

Sun Oct 20, 7:10am

Sun Oct 20, 7:00am

Sun Oct 20, 6:10am

Sun Oct 20, 6:00am

Sun Oct 20, 5:10am

Sun Oct 20, 5:00am

Sun Oct 20, 4:10am

Sun Oct 20, 4:00am

Sun Oct 20, 3:10am

Sun Oct 20, 3:00am

Sun Oct 20, 2:10am

Sun Oct 20, 2:00am

Sun Oct 20, 1:10am

Sun Oct 20, 1:00am

Sun Oct 20, 12:10am

Sun Oct 20, 12:00am

Sat Oct 19, 11:10pm

Sat Oct 19, 11:00pm

Sat Oct 19, 10:10pm

Sat Oct 19, 10:00pm

Sat Oct 19, 9:10pm

Sat Oct 19, 9:00pm

Sat Oct 19, 8:10pm

Sat Oct 19, 8:00pm

Sat Oct 19, 7:10pm

Sat Oct 19, 7:00pm

Sat Oct 19, 6:10pm

Sat Oct 19, 6:00pm

Sat Oct 19, 5:10pm

Sat Oct 19, 5:00pm

Sat Oct 19, 4:10pm

Sat Oct 19, 4:00pm

Sat Oct 19, 3:10pm

Sat Oct 19, 3:01pm

Sat Oct 19, 2:10pm

Sat Oct 19, 2:00pm

Sat Oct 19, 1:10pm

Sat Oct 19, 1:01pm

Sat Oct 19, 12:10pm

Sat Oct 19, 12:00pm

Sat Oct 19, 11:10am

Sat Oct 19, 11:01am

Sat Oct 19, 10:10am

Sat Oct 19, 10:00am

Sat Oct 19, 9:10am

Sat Oct 19, 9:00am

Sat Oct 19, 8:10am

Sat Oct 19, 8:00am

Sat Oct 19, 7:10am

Sat Oct 19, 7:00am

Sat Oct 19, 6:10am

Sat Oct 19, 6:00am

Sat Oct 19, 5:10am

Sat Oct 19, 5:00am

Sat Oct 19, 4:10am

Sat Oct 19, 4:00am

Sat Oct 19, 3:10am

Sat Oct 19, 3:00am

Sat Oct 19, 2:10am

Sat Oct 19, 2:00am

Meta data:

ID: 8413b59b-49ea-4813-916c-51816a2f57c1
Link: https://api.weather.gov/products/8413b59b-49ea-4813-916c-51816a2f57c1